Humidity-temperature Sensor

Selected Measurement Type: Air Temperature

 
Air Temperature [°C]     6 entries per hour
Showing data from 8/25/2020 (00:00:00 Z) to 8/18/2020 (00:01:00 Z)
Previous Next [ Day | 3-Days | 7-Days ]
First Last
Prev [ Day | 3-Days | 7-Days ] Next
First Last

Start Time:     :
End Time:     :     
Time (in GMT) :00 :50 :40 :30 :20 :10
Previous Next [ Day | 3-Days | 7-Days ]
First Last
Prev [ Day | 3-Days | 7-Days ] Next
First Last


123 => good data
MM => data is determined as missing
-- => data not received/configured
Back to Top Back to Top
8/25/2020 00:00 to 23:10 26.65 26.94 26.86 26.00 26.25 26.45
8/24/2020 23:00 to 22:10 26.38 27.44 27.49 27.63 27.41 27.45
8/24/2020 22:00 to 21:10 27.35 27.59 27.44 27.46 27.43 27.45
8/24/2020 21:00 to 20:10 27.43 27.31 27.25 27.18 27.14 27.12
8/24/2020 20:00 to 19:10 27.14 27.05 27.04 26.76 26.77 26.64
8/24/2020 19:00 to 18:10 26.56 26.60 26.76 26.62 26.71 26.71
8/24/2020 18:00 to 17:10 26.55 26.43 26.28 26.30 26.22 26.17
8/24/2020 17:00 to 16:10 26.24 26.22 26.19 25.99 25.98 26.02
8/24/2020 16:00 to 15:10 26.01 26.12 25.74 25.46 25.17 25.04
8/24/2020 15:00 to 14:10 25.16 24.98 24.77 25.10 25.10 24.93
8/24/2020 14:00 to 13:10 24.66 24.78 24.68 24.55 24.19 24.16
8/24/2020 13:00 to 12:10 24.63 24.73 24.82 25.05 25.19 24.69
8/24/2020 12:00 to 11:10 24.91 25.07 25.07 25.57 25.23 25.69
8/24/2020 11:00 to 10:10 25.60 25.77 25.73 25.64 25.83 25.79
8/24/2020 10:00 to 9:10 25.73 25.53 25.64 25.67 25.65 25.95
8/24/2020 09:00 to 8:10 26.08 26.14 26.13 26.72 26.59 26.57
8/24/2020 08:00 to 7:10 27.39 27.23 26.62 26.30 26.27 26.26
8/24/2020 07:00 to 6:10 25.91 26.44 25.88 25.72 25.84 26.24
8/24/2020 06:00 to 5:10 26.65 26.77 26.54 26.53 27.51 27.94
8/24/2020 05:00 to 4:10 28.24 28.21 27.87 27.23 26.94 26.66
8/24/2020 04:00 to 3:10 26.98 26.35 26.43 27.88 27.79 27.76
8/24/2020 03:00 to 2:10 27.54 27.78 27.68 27.32 27.76 27.87
8/24/2020 02:00 to 1:10 28.02 27.80 27.37 27.36 27.19 27.11
8/24/2020 01:00 to 0:10 26.93 27.36 27.31 27.13 27.21 27.03
8/24/2020 00:00 to 23:10 27.20 27.01 27.18 28.27 28.33 28.19
8/23/2020 23:00 to 22:10 27.90 27.35 27.15 27.73 27.31 27.56
8/23/2020 22:00 to 21:10 27.40 28.28 28.24 28.20 28.29 28.14
8/23/2020 21:00 to 20:10 28.18 28.19 28.12 28.23 28.26 28.12
8/23/2020 20:00 to 19:10 27.89 27.82 27.64 27.49 27.23 26.78
8/23/2020 19:00 to 18:10 26.40 26.73 27.52 27.85 27.76 27.83
8/23/2020 18:00 to 17:10 28.03 27.70 27.58 27.53 27.55 27.47
8/23/2020 17:00 to 16:10 27.60 27.50 27.54 27.50 27.39 27.32
8/23/2020 16:00 to 15:10 27.30 27.29 27.07 27.15 27.38 27.79
8/23/2020 15:00 to 14:10 27.77 26.78 26.80 27.53 27.93 28.01
8/23/2020 14:00 to 13:10 27.91 27.79 28.00 28.00 27.77 27.75
8/23/2020 13:00 to 12:10 27.56 28.02 27.81 27.99 28.02 27.94
8/23/2020 12:00 to 11:10 27.97 27.92 27.94 27.96 27.84 27.84
8/23/2020 11:00 to 10:10 27.73 27.80 27.93 27.81 27.76 27.61
8/23/2020 10:00 to 9:10 27.36 27.20 27.12 27.54 27.07 27.04
8/23/2020 09:00 to 8:10 26.89 26.50 26.05 25.78 25.79 25.67
8/23/2020 08:00 to 7:10 25.61 26.56 26.73 27.58 27.46 27.31
8/23/2020 07:00 to 6:10 27.81 28.08 28.10 27.92 28.14 28.32
8/23/2020 06:00 to 5:10 28.28 28.19 28.24 28.38 28.17 28.38
8/23/2020 05:00 to 4:10 28.80 28.76 28.86 28.91 29.02 28.94
8/23/2020 04:00 to 3:10 28.87 28.80 28.80 28.73 28.71 28.64
8/23/2020 03:00 to 2:10 28.58 28.67 28.49 28.63 28.48 28.39
8/23/2020 02:00 to 1:10 28.47 28.46 28.55 28.51 28.35 28.47
8/23/2020 01:00 to 0:10 28.46 28.25 28.33 28.29 28.17 28.06
8/23/2020 00:00 to 23:10 28.02 28.22 28.18 28.19 28.10 28.09
8/22/2020 23:00 to 22:10 27.97 28.14 28.08 28.12 28.13 28.15
8/22/2020 22:00 to 21:10 27.98 28.16 27.94 27.93 28.07 28.01
8/22/2020 21:00 to 20:10 28.05 28.01 28.08 27.97 28.04 28.16
8/22/2020 20:00 to 19:10 27.93 28.05 28.00 28.08 28.26 27.96
8/22/2020 19:00 to 18:10 28.16 28.13 28.12 28.12 28.03 27.80
8/22/2020 18:00 to 17:10 27.93 28.04 28.00 27.87 27.63 27.57
8/22/2020 17:00 to 16:10 27.51 27.59 27.59 27.61 27.66 27.51
8/22/2020 16:00 to 15:10 27.52 27.79 27.68 27.58 27.72 27.66
8/22/2020 15:00 to 14:10 27.79 27.68 27.67 27.68 27.65 27.76
8/22/2020 14:00 to 13:10 27.68 27.87 27.72 27.85 27.82 27.82
8/22/2020 13:00 to 12:10 27.78 27.83 27.89 27.79 27.84 27.91
8/22/2020 12:00 to 11:10 27.91 27.88 27.96 27.88 27.97 27.97
8/22/2020 11:00 to 10:10 27.85 27.89 27.93 28.05 27.86 27.96
8/22/2020 10:00 to 9:10 28.01 28.03 28.13 28.30 28.32 28.26
8/22/2020 09:00 to 8:10 28.33 28.26 28.22 28.32 28.31 28.31
8/22/2020 08:00 to 7:10 28.27 28.31 28.41 28.30 28.34 28.36
8/22/2020 07:00 to 6:10 28.38 28.35 28.33 28.38 28.32 28.32
8/22/2020 06:00 to 5:10 28.30 28.41 28.34 28.27 28.31 28.36
8/22/2020 05:00 to 4:10 28.37 28.35 28.43 28.48 28.32 28.29
8/22/2020 04:00 to 3:10 28.40 28.43 28.43 28.45 28.43 28.56
8/22/2020 03:00 to 2:10 28.43 28.45 28.26 28.34 28.37 28.42
8/22/2020 02:00 to 1:10 28.38 28.42 28.38 28.31 28.46 28.51
8/22/2020 01:00 to 0:10 28.55 28.62 28.38 28.28 28.16 28.19
8/22/2020 00:00 to 23:10 28.31 28.20 28.28 28.17 28.44 28.27
8/21/2020 23:00 to 22:10 28.30 28.18 28.18 28.54 28.28 28.55
8/21/2020 22:00 to 21:10 28.50 28.18 28.12 28.34 28.06 28.13
8/21/2020 21:00 to 20:10 28.10 28.01 27.93 27.94 27.99 27.99
8/21/2020 20:00 to 19:10 28.13 28.10 27.97 28.00 28.17 28.27
8/21/2020 19:00 to 18:10 28.05 28.29 28.03 28.05 28.06 27.86
8/21/2020 18:00 to 17:10 27.86 27.62 27.33 27.29 27.23 27.22
8/21/2020 17:00 to 16:10 27.21 27.24 27.24 27.13 27.17 27.22
8/21/2020 16:00 to 15:10 27.21 27.16 27.23 27.21 27.12 27.17
8/21/2020 15:00 to 14:10 27.18 27.17 27.13 27.14 27.11 27.16
8/21/2020 14:00 to 13:10 27.21 27.11 27.10 27.17 27.22 27.31
8/21/2020 13:00 to 12:10 27.36 27.44 27.40 27.29 27.19 27.29
8/21/2020 12:00 to 11:10 27.27 27.29 27.41 27.53 27.69 27.55
8/21/2020 11:00 to 10:10 27.57 27.44 27.40 27.35 27.44 27.30
8/21/2020 10:00 to 9:10 27.30 27.10 27.22 27.02 26.97 27.12
8/21/2020 09:00 to 8:10 27.08 27.00 27.00 26.95 26.77 26.93
8/21/2020 08:00 to 7:10 26.98 26.78 26.87 26.89 26.81 26.81
8/21/2020 07:00 to 6:10 26.65 26.43 26.23 26.43 26.32 26.40
8/21/2020 06:00 to 5:10 26.48 26.45 26.25 26.16 26.29 26.36
8/21/2020 05:00 to 4:10 26.51 26.66 26.36 26.37 26.26 26.37
8/21/2020 04:00 to 3:10 26.38 26.26 26.31 26.07 25.91 26.05
8/21/2020 03:00 to 2:10 26.18 25.91 25.94 25.90 25.85 25.83
8/21/2020 02:00 to 1:10 25.77 25.65 25.52 25.49 25.39 25.38
8/21/2020 01:00 to 0:10 25.62 24.79 25.25 24.90 25.84 26.45
8/21/2020 00:00 to 23:10 26.94 26.89 26.86 26.84 26.64 26.37
8/20/2020 23:00 to 22:10 26.36 26.38 26.18 25.75 25.50 25.49
8/20/2020 22:00 to 21:10 25.52 26.22 26.30 25.90 25.98 26.82
8/20/2020 21:00 to 20:10 26.98 26.98 27.17 26.95 26.82 27.22
8/20/2020 20:00 to 19:10 27.26 27.35 27.45 27.02 26.53 26.18
8/20/2020 19:00 to 18:10 26.01 26.02 25.71 27.66 27.52 27.51
8/20/2020 18:00 to 17:10 27.46 27.46 27.48 27.40 27.05 27.13
8/20/2020 17:00 to 16:10 26.91 26.72 26.66 26.40 26.62 26.18
8/20/2020 16:00 to 15:10 25.98 25.59 25.22 24.94 25.48 26.44
8/20/2020 15:00 to 14:10 27.11 27.03 26.97 26.53 26.51 25.93
8/20/2020 14:00 to 13:10 25.99 25.97 26.03 25.74 25.38 24.93
8/20/2020 13:00 to 12:10 25.30 25.72 25.03 25.49 25.33 25.11
8/20/2020 12:00 to 11:10 26.18 25.68 25.81 26.23 26.24 26.48
8/20/2020 11:00 to 10:10 27.04 26.72 26.54 27.01 28.10 28.08
8/20/2020 10:00 to 9:10 28.23 28.16 28.16 27.51 27.05 26.68
8/20/2020 09:00 to 8:10 26.05 25.74 25.39 25.43 25.60 25.65
8/20/2020 08:00 to 7:10 26.80 28.18 28.29 28.45 28.46 28.39
8/20/2020 07:00 to 6:10 28.14 28.06 27.93 27.86 28.18 28.33
8/20/2020 06:00 to 5:10 28.24 28.18 28.32 28.10 28.76 28.84
8/20/2020 05:00 to 4:10 28.81 28.74 28.73 28.66 28.70 28.74
8/20/2020 04:00 to 3:10 28.78 28.74 28.78 28.74 28.64 28.11
8/20/2020 03:00 to 2:10 28.74 28.76 28.70 28.81 28.89 28.71
8/20/2020 02:00 to 1:10 28.78 28.76 28.77 28.71 28.67 28.63
8/20/2020 01:00 to 0:10 28.68 28.49 28.61 28.63 28.47 28.37
8/20/2020 00:00 to 23:10 28.29 27.80 27.63 27.60 27.54 27.57
8/19/2020 23:00 to 22:10 27.40 27.36 27.37 27.47 27.68 27.50
8/19/2020 22:00 to 21:10 27.44 27.34 27.01 26.69 26.54 26.17
8/19/2020 21:00 to 20:10 26.19 25.85 25.30 25.29 25.82 26.30
8/19/2020 20:00 to 19:10 26.33 26.38 25.84 25.64 25.27 25.47
8/19/2020 19:00 to 18:10 25.40 25.21 25.47 25.39 25.67 26.50
8/19/2020 18:00 to 17:10 26.90 26.54 26.71 26.50 26.83 26.96
8/19/2020 17:00 to 16:10 27.44 27.70 27.74 27.59 27.76 27.67
8/19/2020 16:00 to 15:10 27.57 27.16 26.69 26.85 26.71 27.01
8/19/2020 15:00 to 14:10 27.20 27.78 27.72 27.81 27.86 27.65
8/19/2020 14:00 to 13:10 27.39 26.80 26.74 27.10 27.67 27.89
8/19/2020 13:00 to 12:10 27.92 28.04 28.02 27.99 28.10 27.85
8/19/2020 12:00 to 11:10 27.91 27.98 27.92 27.82 27.81 27.79
8/19/2020 11:00 to 10:10 27.88 27.79 27.68 27.83 27.91 27.82
8/19/2020 10:00 to 9:10 27.92 28.03 27.96 28.05 27.85 27.58
8/19/2020 09:00 to 8:10 27.71 27.55 27.69 27.66 27.55 27.43
8/19/2020 08:00 to 7:10 27.15 26.68 26.63 26.61 26.82 26.67
8/19/2020 07:00 to 6:10 26.66 27.04 27.07 26.86 27.66 27.68
8/19/2020 06:00 to 5:10 27.45 27.78 27.99 27.96 27.95 28.16
8/19/2020 05:00 to 4:10 28.31 28.33 28.10 28.35 28.27 28.40
8/19/2020 04:00 to 3:10 28.34 28.37 28.31 28.18 28.35 28.44
8/19/2020 03:00 to 2:10 28.61 28.55 28.66 28.59 28.46 28.43
8/19/2020 02:00 to 1:10 28.47 28.35 28.30 28.21 27.36 27.14
8/19/2020 01:00 to 0:10 26.52 26.62 27.59 27.61 27.75 27.57
8/19/2020 00:00 to 23:10 27.38 27.35 27.23 27.86 28.43 28.36
8/18/2020 23:00 to 22:10 28.32 28.36 28.37 28.30 28.40 28.54
8/18/2020 22:00 to 21:10 28.53 28.45 28.33 28.28 28.28 28.23
8/18/2020 21:00 to 20:10 28.75 28.64 28.47 28.46 28.44 28.66
8/18/2020 20:00 to 19:10 28.56 28.47 28.07 27.99 27.83 27.55
8/18/2020 19:00 to 18:10 27.68 27.83 27.47 27.39 27.32 27.37
8/18/2020 18:00 to 17:10 27.69 27.66 28.08 27.98 27.85 27.55
8/18/2020 17:00 to 16:10 28.05 27.94 27.68 27.93 27.92 27.89
8/18/2020 16:00 to 15:10 27.83 27.71 27.80 27.77 27.73 27.98
8/18/2020 15:00 to 14:10 27.99 28.08 28.00 27.93 27.96 28.05
8/18/2020 14:00 to 13:10 28.03 27.99 27.91 28.00 28.05 27.94
8/18/2020 13:00 to 12:10 27.94 27.99 28.07 27.99 27.97 28.03
8/18/2020 12:00 to 11:10 28.09 28.03 28.04 28.08 28.10 28.18
8/18/2020 11:00 to 10:10 28.14 28.10 28.17 28.19 28.12 28.19
8/18/2020 10:00 to 9:10 28.11 28.19 28.20 28.29 28.30 28.28
8/18/2020 09:00 to 8:10 28.32 28.31 28.37 28.30 28.35 28.32
8/18/2020 08:00 to 7:10 28.27 28.36 28.31 28.27 28.22 28.43
8/18/2020 07:00 to 6:10 28.31 28.33 28.30 28.42 28.40 28.32
8/18/2020 06:00 to 5:10 28.47 28.42 28.38 28.54 28.75 28.98
8/18/2020 05:00 to 4:10 29.14 29.12 29.44 29.60 29.42 29.48
8/18/2020 04:00 to 3:10 29.10 29.17 28.94 28.92 28.92 28.79
8/18/2020 03:00 to 2:10 28.81 28.64 28.73 28.74 28.82 28.73
8/18/2020 02:00 to 1:10 28.67 28.67 28.48 28.63 28.45 28.36
8/18/2020 01:00 to 0:10 28.34 28.26 28.22 28.37 28.29 28.20